Weather History for Hattiesburg, MS

Change the Weather History Date:

Saturday, January 1, 2011

  Actual Average Record
Temperature  
Mean Temperature 59 °F 49 °F  
Max Temperature 72 °F 60 °F 81 °F (1952)
Min Temperature 46 °F 38 °F 17 °F (1984)
Degree Days  
Heating Degree Days 6 16  
Month to date heating degree days 6 16  
Since 1 July heating degree days 853 801  
Cooling Degree Days 0 0  
Month to date cooling degree days 0 0  
Year to date cooling degree days 0 0  
Growing Degree Days 8 (Base 50)    
Moisture  
Dew Point 55 °F    
Average Humidity 75    
Maximum Humidity 100    
Minimum Humidity 50    
Precipitation  
Precipitation 0.81 in 0.19 in 2.32 in (1986)
Month to date precipitation 0.81 0.19  
Year to date precipitation 0.81 0.19  
Sea Level Pressure  
Sea Level Pressure 29.97 in    
Wind  
Wind Speed 11 mph (NW)    
Max Wind Speed 26 mph    
Max Gust Speed 35 mph    
Visibility 8 miles    
Events Rain , Thunderstorm    
T = Trace of Precipitation, MM = Missing Value Source: NWS Daily Summary

Daily Weather History Graph

Daily Weather History Graph

Search for Another Location

Airport:

Trip Planner

Search our weather history database for the weather conditions in past years. The results will help you decide how hot, cold, wet, or windy it might be!

Date:

Astronomy

Jan. 01, 2011 Rise Set
Actual Time 6:55 AM CST 5:05 PM CST
Civil Twilight 6:29 AM CST 5:32 PM CST
Nautical Twilight 5:58 AM CST 6:02 PM CST
Astronomical Twilight 5:29 AM CST 6:31 PM CST
Moon 4:27 AM CST 2:44 PM CST
Length of Visible Light 11h 02m
Length of Day
10h 09m
Waning Crescent, 7% of the Moon is Illuminated
Jan 1
Waning Crescent
Jan 4
New
Jan 12
First Quarter
Jan 19
Full
Jan 26
Last Quarter

Hourly Weather History & Observations

Time (CST) Temp. Windchill Dew Point Humidity Pressure Visibility Wind Dir Wind Speed Gust Speed Precip Events Conditions
12:53 AM 71.1 °F - 68.0 °F 90% 29.85 in 10.0 mi South 24.2 mph 31.1 mph N/A   Overcast
1:00 AM 71.6 °F - 66.2 °F 83% 29.86 in 10.0 mi South 18.4 mph 31.1 mph N/A   Overcast
1:16 AM 71.6 °F - 66.2 °F 83% 29.85 in 10.0 mi South 18.4 mph 31.1 mph N/A   Overcast
1:53 AM 71.1 °F - 66.9 °F 87% 29.86 in 10.0 mi South 25.3 mph 32.2 mph N/A   Overcast
2:53 AM 71.1 °F - 66.9 °F 87% 29.86 in 10.0 mi South 17.3 mph 28.8 mph 0.00 in   Overcast
3:07 AM 71.6 °F - 66.2 °F 83% 29.86 in 10.0 mi South 19.6 mph 33.4 mph N/A   Overcast
3:35 AM 71.6 °F - 66.2 °F 83% 29.86 in 10.0 mi South 21.9 mph 29.9 mph N/A   Overcast
3:49 AM 71.6 °F - 66.2 °F 83% 29.86 in 10.0 mi South 19.6 mph 31.1 mph N/A   Overcast
3:53 AM 71.1 °F - 66.9 °F 87% 29.85 in 10.0 mi South 17.3 mph 28.8 mph N/A   Overcast
4:53 AM 70.0 °F - 68.0 °F 93% 29.86 in 7.0 mi SSW 19.6 mph 28.8 mph 0.04 in Rain Light Rain
5:25 AM 69.8 °F - 68.0 °F 94% 29.87 in 9.0 mi South 18.4 mph 27.6 mph 0.01 in   Overcast
5:34 AM 69.8 °F - 68.0 °F 94% 29.87 in 9.0 mi South 16.1 mph 25.3 mph 0.01 in Rain , Thunderstorm Light Rain
5:53 AM 70.0 °F - 68.0 °F 93% 29.86 in 7.0 mi South 10.4 mph 21.9 mph 0.02 in Rain , Thunderstorm Light Thunderstorms and Rain
6:49 AM 69.8 °F - 68.0 °F 94% 29.88 in 2.0 mi WSW 11.5 mph - 0.14 in Rain , Thunderstorm Heavy Thunderstorms and Rain
6:53 AM 68.0 °F - 66.9 °F 96% 29.90 in 2.0 mi WNW 15.0 mph 21.9 mph 0.14 in Rain , Thunderstorm Heavy Thunderstorms and Rain
7:01 AM 62.6 °F - 60.8 °F 94% 29.91 in 2.0 mi NW 12.7 mph 21.9 mph 0.12 in Rain Heavy Rain
7:04 AM 62.6 °F - 60.8 °F 94% 29.91 in 1.5 mi NW 12.7 mph 18.4 mph 0.18 in Rain Heavy Rain
7:09 AM 60.8 °F - 59.0 °F 94% 29.91 in 2.0 mi NW 11.5 mph - 0.20 in Rain Heavy Rain
7:17 AM 60.8 °F - 59.0 °F 94% 29.93 in 4.0 mi WNW 6.9 mph 19.6 mph 0.25 in Rain Rain
7:53 AM 57.9 °F - 55.9 °F 93% 29.94 in 8.0 mi NW 9.2 mph - 0.33 in Rain Light Rain
8:11 AM 57.2 °F - 55.4 °F 94% 29.96 in 9.0 mi NNW 8.1 mph - 0.02 in Rain , Thunderstorm Light Rain
8:25 AM 57.2 °F - 55.4 °F 94% 29.97 in 8.0 mi NW 11.5 mph - 0.02 in Rain Light Rain
8:39 AM 55.4 °F - 55.4 °F 100% 29.97 in 9.0 mi NW 5.8 mph - 0.03 in Rain , Thunderstorm Light Rain
8:50 AM 55.4 °F - 53.6 °F 94% 29.96 in 1.8 mi NNW 6.9 mph - 0.13 in Rain , Thunderstorm Heavy Rain
8:53 AM 55.9 °F - 55.0 °F 97% 29.96 in 1.8 mi NNW 8.1 mph - 0.14 in Rain Heavy Rain
9:15 AM 55.4 °F - 53.6 °F 94% 29.99 in 2.5 mi NNW 9.2 mph - 0.14 in Rain , Thunderstorm Rain
9:22 AM 55.4 °F - 53.6 °F 94% 30.00 in 10.0 mi NNW 3.5 mph - 0.14 in Rain , Thunderstorm Light Rain
9:36 AM 55.4 °F - 53.6 °F 94% 30.01 in 10.0 mi NNW 6.9 mph - 0.14 in   Overcast
9:53 AM 55.0 °F - 53.1 °F 93% 30.01 in 10.0 mi NNW 6.9 mph - 0.14 in   Overcast
10:19 AM 55.4 °F - 53.6 °F 94% 30.02 in 10.0 mi NNW 10.4 mph 17.3 mph N/A   Overcast
10:53 AM 55.9 °F - 53.1 °F 90% 30.02 in 10.0 mi NNW 11.5 mph - N/A   Overcast
11:53 AM 55.9 °F - 52.0 °F 87% 30.02 in 10.0 mi NNW 9.2 mph 19.6 mph N/A   Overcast
12:48 PM 55.4 °F - 51.8 °F 88% 30.02 in 10.0 mi NNW 8.1 mph - 0.00 in   Overcast
12:53 PM 55.0 °F - 51.1 °F 86% 30.02 in 10.0 mi NNW 13.8 mph 18.4 mph 0.00 in   Overcast
1:53 PM 53.1 °F - 48.9 °F 86% 30.03 in 10.0 mi North 9.2 mph 21.9 mph N/A   Overcast
2:07 PM 53.6 °F - 48.2 °F 82% 30.03 in 10.0 mi North 9.2 mph - N/A   Overcast
2:48 PM 53.6 °F - 48.2 °F 82% 30.06 in 10.0 mi North 6.9 mph - N/A   Overcast
2:53 PM 54.0 °F - 46.9 °F 77% 30.06 in 10.0 mi North 8.1 mph - N/A   Overcast
3:53 PM 55.0 °F - 43.0 °F 64% 30.07 in 10.0 mi North 11.5 mph 17.3 mph N/A   Overcast
4:53 PM 53.1 °F - 36.0 °F 52% 30.08 in 10.0 mi North 6.9 mph - N/A   Scattered Clouds
5:53 PM 52.0 °F - 37.9 °F 59% 30.10 in 10.0 mi NNW 4.6 mph - N/A   Mostly Cloudy
6:53 PM 51.1 °F - 35.1 °F 54% 30.12 in 10.0 mi North 4.6 mph - N/A   Scattered Clouds
7:53 PM 51.1 °F - 36.0 °F 56% 30.15 in 10.0 mi Calm Calm - N/A   Overcast
8:53 PM 48.9 °F - 36.0 °F 61% 30.14 in 10.0 mi NNW 6.9 mph - N/A   Partly Cloudy
9:53 PM 48.0 °F - 35.1 °F 61% 30.17 in 10.0 mi NNW 4.6 mph - N/A   Mostly Cloudy
10:53 PM 46.0 °F 43.1 °F 34.0 °F 63% 30.17 in 10.0 mi NNW 5.8 mph - N/A   Partly Cloudy
11:53 PM 46.0 °F 40.6 °F 34.0 °F 63% 30.16 in 10.0 mi NNW 11.5 mph - N/A   Overcast